TimeMDT,TemperatureF,Dew PointF,Humidity,Sea Level PressureIn,VisibilityMPH,Wind Direction,Wind SpeedMPH,Gust SpeedMPH,PrecipitationIn,Events,Conditions,WindDirDegrees,DateUTC
12:53 AM,54.0,37.9,55,30.00,10.0,West,3.5,-,N/A,,Clear,270,2013-08-04 06:53:00
1:53 AM,52.0,37.9,59,29.99,10.0,West,6.9,-,N/A,,Clear,280,2013-08-04 07:53:00
2:53 AM,51.1,37.9,61,29.99,10.0,West,6.9,-,N/A,,Clear,270,2013-08-04 08:53:00
3:53 AM,50.0,37.9,63,29.99,10.0,West,8.1,-,N/A,,Clear,270,2013-08-04 09:53:00
4:53 AM,46.9,37.0,68,30.01,10.0,West,9.2,-,N/A,,Clear,270,2013-08-04 10:53:00
5:53 AM,46.0,37.0,71,30.02,10.0,West,8.1,-,N/A,,Clear,270,2013-08-04 11:53:00
6:53 AM,46.9,36.0,66,30.04,10.0,West,5.8,-,N/A,,Clear,270,2013-08-04 12:53:00
7:53 AM,51.1,37.0,59,30.05,10.0,West,6.9,-,N/A,,Clear,270,2013-08-04 13:53:00
8:53 AM,64.0,37.0,37,30.05,10.0,Calm,Calm,-,N/A,,Clear,0,2013-08-04 14:53:00
9:53 AM,73.0,36.0,26,30.03,10.0,Variable,3.5,-,N/A,,Clear,0,2013-08-04 15:53:00
10:53 AM,73.0,39.9,30,30.05,10.0,SW,8.1,-,N/A,,Clear,220,2013-08-04 16:53:00
11:53 AM,78.1,39.9,25,30.03,10.0,West,8.1,17.3,N/A,,Mostly Cloudy,280,2013-08-04 17:53:00
12:53 PM,75.9,37.9,25,30.02,10.0,WSW,8.1,16.1,N/A,,Mostly Cloudy,240,2013-08-04 18:53:00
1:53 PM,78.1,39.0,25,30.01,10.0,SW,8.1,-,N/A,,Mostly Cloudy,230,2013-08-04 19:53:00
2:53 PM,78.1,37.0,23,29.99,10.0,West,6.9,-,N/A,,Partly Cloudy,270,2013-08-04 20:53:00
3:53 PM,77.0,37.9,24,29.99,10.0,WSW,10.4,16.1,N/A,,Scattered Clouds,250,2013-08-04 21:53:00
4:24 PM,77.0,37.4,24,30.34,10.0,WSW,17.3,24.2,N/A,Thunderstorm,Mostly Cloudy,240,2013-08-04 22:24:00
4:39 PM,78.8,37.4,23,30.33,10.0,West,12.7,-,N/A,,Scattered Clouds,260,2013-08-04 22:39:00
4:49 PM,78.8,37.4,23,30.33,10.0,WSW,15.0,20.7,N/A,Thunderstorm,Partly Cloudy,240,2013-08-04 22:49:00
4:53 PM,78.1,37.9,24,29.98,10.0,WSW,13.8,21.9,N/A,Thunderstorm,Clear,240,2013-08-04 22:53:00
5:04 PM,75.2,39.2,27,30.33,10.0,WSW,19.6,24.2,N/A,,Clear,250,2013-08-04 23:04:00
5:53 PM,75.9,39.0,26,30.00,10.0,SW,11.5,-,N/A,,Clear,230,2013-08-04 23:53:00
6:53 PM,75.0,41.0,29,30.00,10.0,SE,6.9,-,N/A,,Mostly Cloudy,130,2013-08-05 00:53:00
7:53 PM,72.0,39.0,30,29.98,10.0,South,6.9,-,N/A,,Partly Cloudy,190,2013-08-05 01:53:00
8:53 PM,66.0,43.0,43,29.97,10.0,SE,10.4,-,N/A,,Clear,130,2013-08-05 02:53:00
9:53 PM,62.1,44.1,52,29.97,10.0,SE,9.2,-,N/A,,Clear,130,2013-08-05 03:53:00
10:53 PM,57.9,44.1,60,30.00,10.0,NW,4.6,-,N/A,,Clear,310,2013-08-05 04:53:00
11:53 PM,50.0,42.1,74,30.02,10.0,West,6.9,-,N/A,,Clear,260,2013-08-05 05:53:00